Location: Unspecified
(0.0000°N, 0.0000°E)
Time: 20:09:55
(UTC+00:00)

Hubble Space Telescope - Visible Passes

Search period start: 18 January 2017 00:00
Search period end: 28 January 2017 00:00
Orbit: 538 x 542 km, 28.5° (Epoch: 18 January)

Date Brightness Start Highest point End Pass type
(mag) Time Alt. Az. Time Alt. Az. Time Alt. Az.
21 Jan 3.3 20:06:28 10° NW 20:06:57 13° NW 20:06:57 13° NW visible
22 Jan 2.2 19:56:22 10° NW 19:58:34 29° NW 19:58:34 29° NW visible
23 Jan 0.7 19:46:23 10° WNW 19:50:18 80° NW 19:50:18 80° NW visible
24 Jan 1.1 19:36:30 10° WNW 19:40:35 63° SSW 19:42:07 36° SE visible
25 Jan 1.9 19:26:43 10° WNW 19:30:40 43° SSW 19:33:56 14° SE visible
26 Jan 2.5 05:40:48 10° SW 05:44:33 33° SSE 05:48:19 10° E visible
26 Jan 2.6 19:17:05 10° W 19:20:44 30° SSW 19:24:25 10° SSE visible
27 Jan 1.8 05:30:38 10° SW 05:34:39 47° SSE 05:38:38 10° ENE visible
27 Jan 3.1 19:07:36 10° W 19:10:50 22° SSW 19:14:05 10° SSE visible
